Location: Caltech
(34.1382°N, 118.1253°W)
Time: 18:22:56
(UTC-07:00)

Cosmos 1408 Rocket - Visible Passes

Search period start: 03 August 2015 00:00
Search period end: 13 August 2015 00:00
Orbit: 601 x 632 km, 82.6° (Epoch: 03 August)

Date Brightness Start Highest point End Pass type
(mag) Time Alt. Az. Time Alt. Az. Time Alt. Az.
03 Aug 6.6 01:10:14 10° NNE 01:10:35 12° NNE 01:10:35 12° NNE visible
04 Aug 6.6 01:26:32 10° N 01:26:56 12° N 01:26:56 12° N visible
05 Aug 6.6 01:43:11 10° NNW 01:43:19 11° NNW 01:43:19 11° NNW visible
08 Aug 6.8 00:55:24 10° N 00:55:25 10° N 00:55:25 10° N visible
